Home   Weather   Heide   Past weeks

Flag for Germany Past Weather in Heide, Schleswig-Holstein, Germany — Yesterday and Last 2 Weeks

Now
36 °F

Passing clouds.


Feels Like: 32 °F
Forecast: 34 / 49 °F
Wind: 5 mph from Southwest

Location: Hohn

Current Time: Apr 26, 2017 at 2:28:44 am

Latest Report: Apr 26, 2017 at 1:20 am


Visibility: N/A

Pressure: 29.74 "Hg

Humidity: 87%

Dew Point: 32 °F

Location of HeideLocation

Past Weather in Heide — Graph

°F

Heide Temperature Yesterday

Maximum temperature yesterday: 46 °F (at 3:20 pm)
Minimum temperature yesterday: 28 °F (at 5:20 am)
Average temperature yesterday: 36 °F

High & Low Weather Summary for the Past Weeks

 TemperatureHumidityPressure
High55 °F (Apr 21, 12:20 pm)100% (Apr 25, 10:30 am)30.63 "Hg (Apr 25, 10:30 am)
Low25 °F (Apr 19, 5:20 am)39% (Apr 19, 2:20 pm)29.56 "Hg (Apr 25, 6:20 am)
Average43 °F77%30.02 "Hg
* Reported Apr 11 1:20 am — Apr 26 1:20 am, Heide, Weather by CustomWeather, © 2017

Note: Actual official high and low records may vary slightly from our data, if they occured in-between our weather recording intervals... More about our weather records

Advertising

Heide Weather History for the Previous 24 Hours

Scroll right to see more
 ConditionsComfort  
Time TempWeatherWind HumidityBarometerVisibility
1:20 am
Wed, Apr 26
36 °FPassing clouds.5 mph87%29.74 "HgN/A
12:20 am37 °FPassing clouds.7 mph87%29.74 "HgN/A
11:20 pm
Tue, Apr 25
36 °FPassing clouds.6 mph87%29.74 "HgN/A
10:20 pm36 °FPassing clouds.3 mph87%29.71 "HgN/A
9:20 pm37 °FPassing clouds.5 mph70%29.71 "HgN/A
8:20 pm41 °FScattered clouds.9 mph61%29.71 "HgN/A
7:20 pm43 °FPassing clouds.17 mph57%29.71 "HgN/A
6:20 pm45 °FPartly sunny.13 mph66%29.68 "HgN/A
5:20 pm45 °FPartly sunny.21 mph53%29.68 "HgN/A
4:20 pm46 °FPartly sunny.20 mph53%29.68 "HgN/A
3:50 pm46 °FPartly sunny.20 mph50%29.68 "HgN/A
3:20 pm46 °FPartly sunny.17 mph53%29.65 "HgN/A
2:20 pm43 °FPartly sunny.12 mph71%29.65 "HgN/A
1:20 pm39 °FPartly sunny.6 mph81%29.62 "HgN/A
12:20 pm36 °FPartly sunny.5 mph93%29.62 "Hg5 mi
11:38 am34 °FLight snow. Fog.7 mph93%29.59 "Hg1 mi
11:36 am34 °FLight snow. Fog.7 mph93%29.59 "Hg2 mi
10:59 am32 °FSnow. Ice fog.9 mph93%29.59 "Hg1 mi
10:48 am32 °FSnow. Fog.8 mph100%29.59 "Hg1 mi
10:30 am32 °FSnow. Fog.8 mph100%29.59 "Hg1 mi
10:02 am32 °FSnow flurries. Ice fog.9 mph93%29.56 "Hg1 mi
9:35 am32 °FSnow flurries. Ice fog.8 mph93%29.56 "Hg1 mi
9:15 am32 °FSnow showers. Fog.5 mph93%29.59 "Hg1 mi
8:48 am32 °FSnow showers. Partly sunny.2 mph93%29.56 "Hg1 mi
8:32 am34 °FSnow showers. Partly sunny.2 mph87%29.56 "Hg1 mi
8:12 am34 °FSnow flurries. Broken clouds.2 mph87%29.59 "Hg3 mi
7:44 am34 °FSprinkles. Broken clouds.1 mph87%29.56 "Hg4 mi
7:20 am32 °FPartly sunny.2 mph93%29.56 "HgN/A
6:20 am28 °FScattered clouds.2 mph93%29.56 "HgN/A
5:20 am28 °FFog.1 mph86%29.59 "HgN/A
4:20 am30 °FPassing clouds.No wind86%29.59 "HgN/A
3:20 am30 °FPassing clouds.1 mph86%29.62 "HgN/A
2:20 am32 °FPassing clouds.No wind87%29.65 "HgN/A
Weather by CustomWeather, © 2017

See weather overviewHow to use our weather pages